Tracking 35274 objects as of 10-Sep-2026
HD Live streaming from Space Station
objects crossing your sky now

FALCON 9 DEB


FALCON 9 DEB is no longer on orbit


NORAD ID: 47412
Int'l Code: 2021-005BR
Launch date: January 20, 2021
Source: United States (US)
Launch site: AIR FORCE EASTERN TEST RANGE (AFETR)
Decay date: 2021-02-16

Note: This is SATELLITE DEBRIS
Your satellite tracking list
Your tracking list is empty




NASA's NSSDC Master Catalog

Two Line Element Set (TLE):
1 47412U 21005BR  21047.43650755  .06697772  12422-4  41269-3 0  9999
2 47412  53.0367  71.2963 0004251 290.1891  69.8698 16.41338186  4656
Source of the keplerian elements: AFSPC